ELECTRON KICK STAGE R/B, 68411

Orbit data source: Space-Track

ELECTRON KICK STAGE R/B, 68411 is space debris in SSO originally from a launch on Sat, 28 Mar 2026 UTC launched from the Rocket Lab Launch Complex (RLLC). Debris objects in space refer to the collection of defunct objects orbiting the Earth. Examples of debris include non-operational satellites, rocket bodies, and fragments generated from explosions, collisions, or faulty payload assembly.

Not visible in the next 10 days
Identifier
68411, 2026-065D
Orbit
SSO
Country
Flag of USUS
Related business
Manufacturer
Rocket Lab
Mission
Spacecraft
Bus & Motor
KICK STAGE, CURIE
Mass
~42 kg wet, ~42 kg dry
Launch date (UTC)
2026-03-28 (2 weeks ago)
Launch vehicle
Unknown
Launch site
Rocket Lab Launch Complex (RLLC)
Object type
Payload
Rocket body
Debris
Shape & HBR
Unknown
Radar Cross Section
RCS unknown

Expand to show TLE details & history
Last TLE update: 4 hours ago

TLE from 4 hours ago
0 ELECTRON KICK STAGE R/B
1 68411U 26065D   26102.40387370  .02093765  25061-5  10402-2 0  9992
2 68411  97.4050 345.9356 0086895 330.1592  29.4752 16.12189599  2395
Epoch: 2026-04-12T09:41Z
TLE epoch observation values (Epoch: 2026-04-12T09:41:34.687Z)
Latitude
-0.00005°
Longitude
-0.06824°
Altitude
194.097 km
Speed
7.819 km/s
True Right ascension
23h 03m 44s
True Declination
0° 00' 00"
Sunlit
Object was in daylight at epoch
Visualization orbit readout
Latitude
Unknown
Longitude
Unknown
Altitude
Unknown
Speed
Unknown
Apparent Right ascension
Unknown
Apparent Declination
Unknown
Sunlit
N/A
Visualization observer readout
Local Sidereal Time
20:09:56
Azimuth
Unknown
Elevation
Unknown
Doppler factor
Unknown
Orbital elements
Apogee altitude
295.175 km
Perigee altitude
180.199 km
Semi-major axis
6,615.824 km
Eccentricity
0.00869
Inclination
97.405°
RAAN
345.9356°
Arg. of periapsis
330.1592°
True anomaly
29.96982°
Mean anomaly
29.4752°
Eccentric anomaly
29.72204°
Mean motion
4.03336 °/min
Orbital period
89.26 mins
BSTAR
0.0010402
Loading maneuver chart data...
Computing Atmospheric mass density...
Loading historical data...
Loading historical data...
Loading historical data...
Loading historical data...
Loading historical data...
Loading historical data...
Loading historical data...
Other satellites on launch #65 in the year 2026 (2026-03-28 UTC)

Documentation

Showing up to 5 results
|